FW2487 Weather Reports


Display with metric or nautical units.
time (UTC)temp
F
wind
direction
speed
MPH
gust
MPH
rain 1hr
in
rain 24hr
in
rain mn
in
humidity
%
barometer
mb
20260508013034 68 306 7.0 16.0 0.00 0.00 0.00 34 1015.7
20260508011535 69 295 8.0 18.0 0.00 0.00 0.00 33 1015.7
20260508010036 69 299 8.0 15.0 0.00 0.00 0.00 31 1015.7
20260508004533 69 301 10.0 19.0 0.00 0.00 0.00 30 1015.6
20260508003043 70 292 7.0 15.0 0.00 0.00 0.00 30 1015.7
20260508001534 70 291 8.0 26.0 0.00 0.00 0.00 30 1015.6
20260508000038 71 292 7.0 14.0 0.00 0.00 0.00 30 1015.6
20260507234537 71 310 8.0 21.0 0.00 0.00 0.00 29 1015.6
20260507231533 71 302 9.0 18.0 0.00 0.00 0.00 29 1015.7
20260507230034 71 299 10.0 18.0 0.00 0.00 0.00 28 1015.8
20260507224610 71 283 8.0 17.0 0.00 0.00 0.00 29 1015.9
20260507223032 70 294 7.0 17.0 0.00 0.00 0.00 30 1016.1
20260507221535 70 305 6.0 15.0 0.00 0.00 0.00 30 1016.3
20260507220142 69 304 8.0 18.0 0.00 0.00 0.00 31 1016.5
20260507214534 69 325 9.0 18.0 0.00 0.00 0.00 32 1016.5
20260507213035 69 308 8.0 18.0 0.00 0.00 0.00 33 1016.6
20260507210032 69 296 9.0 22.0 0.00 0.00 0.00 34 1016.8
20260507204530 69 300 7.0 18.0 0.00 0.00 0.00 36 1016.9
20260507203034 68 302 8.0 17.0 0.00 0.00 0.00 37 1017.0
20260507201533 68 298 9.0 18.0 0.00 0.00 0.00 36 1017.1
20260507200033 68 303 9.0 17.0 0.00 0.00 0.00 35 1017.3
20260507194611 68 294 9.0 19.0 0.00 0.00 0.00 35 1017.3
20260507193036 67 277 9.0 17.0 0.00 0.00 0.00 35 1017.4
20260507191535 67 281 10.0 18.0 0.00 0.00 0.00 36 1017.5
20260507190034 66 288 11.0 18.0 0.00 0.00 0.00 36 1017.5
20260507184607 64 287 11.0 20.0 0.00 0.00 0.00 39 1017.8
20260507181652 64 286 11.0 20.0 0.00 0.00 0.00 39 1018.0
20260507180035 64 284 10.0 16.0 0.00 0.00 0.00 41 1018.2
20260507174536 63 283 9.0 16.0 0.00 0.00 0.00 42 1018.4
20260507171539 61 308 8.0 18.0 0.00 0.00 0.00 50 1018.5
20260507170109 60 331 10.0 17.0 0.00 0.00 0.00 53 1018.4
20260507164537 59 326 8.0 15.0 0.00 0.00 0.00 54 1018.5
20260507163037 59 326 8.0 16.0 0.00 0.00 0.00 56 1018.5
20260507161539 58 332 10.0 16.0 0.00 0.00 0.00 57 1018.5
20260507154535 57 328 10.0 17.0 0.00 0.00 0.00 58 1018.7
20260507153036 57 322 9.0 15.0 0.00 0.00 0.00 58 1018.7
20260507151542 57 311 7.0 16.0 0.00 0.00 0.00 58 1018.8
20260507150048 56 312 6.0 11.0 0.00 0.00 0.00 62 1018.9
20260507144610 56 328 5.0 12.0 0.00 0.00 0.00 63 1018.8
20260507143037 55 342 3.0 14.0 0.00 0.00 0.00 66 1018.9
20260507141535 53 330 4.0 13.0 0.00 0.00 0.00 69 1018.7
20260507140036 52 294 5.0 12.0 0.00 0.00 0.00 71 1018.6
20260507134537 51 311 6.0 10.0 0.00 0.00 0.00 73 1018.6
20260507133033 51 318 5.0 8.0 0.00 0.00 0.00 74 1018.6
20260507130035 52 333 3.0 7.0 0.00 0.00 0.00 74 1018.7
20260507124535 52 327 3.0 7.0 0.00 0.00 0.00 74 1018.7
20260507123035 53 340 3.0 7.0 0.00 0.00 0.00 72 1018.7
20260507121653 53 308 4.0 9.0 0.00 0.00 0.00 70 1018.5
20260507114535 54 248 5.0 13.0 0.00 0.00 0.00 71 1018.4
20260507113033 54 238 5.0 13.0 0.00 0.00 0.00 71 1018.3
20260507111531 54 242 7.0 16.0 0.00 0.00 0.00 72 1018.3
20260507110035 54 244 8.0 16.0 0.00 0.00 0.00 71 1018.4
20260507104535 54 248 9.0 18.0 0.00 0.00 0.00 71 1018.4
20260507103036 54 251 8.0 23.0 0.00 0.00 0.00 71 1018.4
20260507101531 55 249 7.0 16.0 0.00 0.00 0.00 70 1018.5
20260507100045 55 254 8.0 17.0 0.00 0.00 0.00 69 1018.5
20260507094534 55 256 6.0 16.0 0.00 0.00 0.00 69 1018.6
20260507093037 55 247 4.0 13.0 0.00 0.00 0.00 69 1018.7
20260507091535 55 229 4.0 9.0 0.00 0.00 0.00 69 1018.7
20260507090035 56 224 5.0 14.0 0.00 0.00 0.00 69 1018.8
20260507084535 55 238 5.0 13.0 0.00 0.00 0.00 70 1019.1
20260507081536 56 208 4.0 8.0 0.00 0.00 0.00 70 1019.3
20260507080032 54 156 2.0 7.0 0.00 0.00 0.00 75 1019.3
20260507074534 53 48 1.0 5.0 0.00 0.00 0.00 77 1019.3
20260507073033 53 176 1.0 5.0 0.00 0.00 0.00 76 1019.2
20260507071607 55 312 1.0 4.0 0.00 0.00 0.00 72 1019.2
20260507070030 56 217 0.0 5.0 0.00 0.00 0.00 72 1019.2
20260507064607 56 236 0.0 4.0 0.00 0.00 0.00 71 1019.3
20260507063036 57 240 0.0 5.0 0.00 0.00 0.00 70 1019.4
20260507061534 56 212 3.0 8.0 0.00 0.00 0.00 71 1019.4
20260507060037 57 206 0.0 5.0 0.00 0.00 0.00 71 1019.5
20260507054535 57 261 2.0 7.0 0.00 0.00 0.00 71 1019.6
20260507053035 56 237 1.0 8.0 0.00 0.00 0.00 71 1019.6
20260507051535 56 174 1.0 4.0 0.00 0.00 0.00 70 1019.6
20260507050036 58 63 2.0 6.0 0.00 0.00 0.00 68 1019.6
20260507044534 58 278 4.0 10.0 0.00 0.00 0.00 66 1019.6
20260507043036 59 232 1.0 4.0 0.00 0.00 0.00 64 1019.4
20260507041535 59 255 3.0 8.0 0.00 0.00 0.00 63 1019.3
20260507040046 60 234 3.0 10.0 0.00 0.00 0.00 62 1019.3
20260507034534 60 233 5.0 10.0 0.00 0.00 0.00 61 1019.2
20260507033143 61 208 6.0 11.0 0.00 0.00 0.00 60 1019.2
20260507031536 61 223 5.0 12.0 0.00 0.00 0.00 59 1019.2
20260507024535 63 236 6.0 14.0 0.00 0.00 0.00 57 1019.2
20260507023036 65 257 9.0 18.0 0.00 0.00 0.00 55 1019.2
20260507021537 66 243 9.0 20.0 0.00 0.00 0.00 53 1019.0
20260507020107 67 234 6.0 8.0 0.00 0.00 0.00 52 1018.9
20260507014534 68 232 6.0 12.0 0.00 0.00 0.00 51 1018.7
20260507013108 67 248 8.0 18.0 0.00 0.00 0.00 51 1018.6